Hourly Data Report for October 27, 2012

All times are specified in Local Standard Time (LST). Add 1 hour to adjust for Daylight Saving Time where and when it is observed.

KITCHENER/WATERLOO
ONTARIO

43°27'39.000" N
80°22'43.000" W
321.60 m
6144239
71368
YKF

Download Data

Hourly Data (October 2012)
Hourly Data Report for October 27, 2012
Temp Definition
°C
Dew Point Temp Definition
°C
Rel Hum Definition
%
Wind Dir Definition
10's deg

Wind Spd Definition
km/h
Visibility Definition
km
Stn Press Definition
kPa
Hmdx Definition


Wind Chill Definition


Weather Definition


TIME
00:00 Legend Double Dagger 5.0 3.7 91 35 8 16.1 98.39     LegendNANA
01:00 Legend Double Dagger 4.8 3.9 94 31 13 16.1 98.28     LegendNANA
02:00 Legend Double Dagger 5.0 4.3 95 34 15 8.1 98.27     LegendNANA
03:00 Legend Double Dagger 5.3 4.4 94 36 5 14.5 98.24     LegendNANA
04:00 Legend Double Dagger 5.3 4.6 95 36 11 16.1 98.21     LegendNANA
05:00 Legend Double Dagger 5.4 4.5 94 2 13 12.9 98.16     LegendNANA
06:00 Legend Double Dagger 5.6 4.9 95 1 9 16.1 98.16     LegendNANA
07:00 Legend Double Dagger 5.6 4.9 95 2 9 6.4 98.19     LegendNANA
08:00 Legend Double Dagger 5.6 5.0 96 36 15 11.3 98.16     LegendNANA
09:00 Legend Double Dagger 5.9 5.2 95 36 15 11.3 98.19     LegendNANA
10:00 Legend Double Dagger 6.0 5.1 94 36 18 8.1 98.17     LegendNANA
11:00 Legend Double Dagger 6.0 5.0 93 36 13 9.7 98.16     LegendNANA
12:00 Legend Double Dagger 5.9 5.0 94 35 17 8.1 98.11     LegendNANA
13:00 Legend Double Dagger 6.0 5.1 94 34 15 14.5 98.04     LegendNANA
14:00 Legend Double Dagger 6.2 5.0 92 35 18 16.1 98.03     LegendNANA
15:00 Legend Double Dagger 6.3 4.9 91 36 17 16.1 98.04     LegendNANA
16:00 Legend Double Dagger 6.3 5.1 92 33 15 16.1 98.12     LegendNANA
17:00 Legend Double Dagger 6.3 4.8 90 35 15 16.1 98.14     LegendNANA
18:00 Legend Double Dagger 5.1 3.9 92 35 11 16.1 98.18     LegendNANA
19:00 Legend Double Dagger 4.8 3.5 91 35 9 16.1 98.21     LegendNANA
20:00 Legend Double Dagger 4.6 3.3 91 35 18 16.1 98.21     LegendNANA
21:00 Legend Double Dagger 4.2 2.9 91 35 15 16.1 98.21     LegendNANA
22:00 Legend Double Dagger 4.1 2.3 88 36 15 16.1 98.21     LegendNANA
23:00 Legend Double Dagger 2.6 1.6 93 34 9 16.1 98.21     LegendNANA

Notes on Data Quality.

Legend

  • E = Estimated
  • M = Missing
  • NA = Not Available
  • ‡ = Partner data that is not subject to review by the National Climate Archives
Date modified: